Terminal Aerodrome Forecast
Issued by NWS

Home | Current Version | Previous Version | Text Only | Print | Product List | Glossary Off
Versions: 1 2 3 4 5 6 7 8 9 10 11 12 13 14 15 16 17 18 19 20 21

000
FTUS45 KGGW 251700
TAFSDY
TAF
KSDY 251722Z 2518/2618 26014KT P6SM VCSH SCT015 BKN060
     FM260400 33009KT 6SM BR OVC020
     FM260900 VRB05KT P6SM OVC007
      AMD LTD TO CLD VIS AND WIND=

USA.gov is the U.S. government's official web portal to all federal, state and local government web resources and services.